[[{"header":{"parameterUnit":"m.s-1","parameterCategory":1,"la1":30.2991,"la2":30.254,"lo1":-89.0895,"lo2":-89.0444,"dy":0.0017,"dx":0.0017,"nx":28,"ny":28,"refTime":"2024-07-27T21:00:00:Z","depth":0,"parameterNumber":2,"parameterNumberName":"U-component_of_WINDS"},"data":[0,0,0,0,0,0,0,0,0,0,0,0,0,0,0,0,0,0,0,0,0,0,0,0,0,0,0,0,0,0,0,0,0,0,0,0,0,0,0,0,0,0,0,0,0,0,0,0,0,0,0,0,0,0,0,0,0,0,0.8475,0.8476,0,0.8566,0.8567,0.8568,0.8606,0.8605,0.8605,0.8605,0.8697,0.87,0.8702,0,0,0,0,0,0,0,0,0,0,0,0,0,0.8333,0.8336,0.8475,0.8476,0.8477,0.8566,0.8567,0.8568,0.8606,0.8605,0.8605,0.8605,0.8696,0.8699,0.8703,0,0,0,0,0,0,0,0,0,0,0,0,0,0.8406,0.8336,0.8475,0.8507,0.8511,0.8565,0.8567,0.8569,0.8606,0.8605,0.8605,0.8605,0.8695,0.8699,0.8703,0.8733,0,0,0.8715,0.8717,0,0,0,0,0,0,0,0,0.8402,0.8412,0.8501,0.8505,0.8509,0.8574,0.8551,0.8624,0.8606,0.857,0.8605,0.8605,0.8656,0.8664,0.8681,0.8737,0.8741,0.8715,0.8718,0.8719,0.8721,0,0,0,0,0,0,0,0.8397,0.8408,0.8511,0.8502,0.8507,0.8516,0.8526,0.8565,0.8613,0.8573,0.8576,0.8586,0.8659,0.8677,0.8684,0.8742,0.8715,0.8719,0.8721,0.8723,0.8827,0.8827,0,0,0,0,0,0,0.8387,0.8403,0.8508,0.8514,0.8454,0.8519,0.853,0.8554,0.8613,0.8622,0.8586,0.8587,0.8671,0.8679,0.8687,0.8726,0.8719,0.8723,0.8725,0.8826,0.8827,0.8827,0,0,0,0,0,0,0.8384,0.8396,0.8504,0.8459,0.8474,0.8522,0.8548,0.8555,0.8574,0.8623,0.8632,0.8596,0.8671,0.8681,0.8721,0.8729,0.8725,0.8728,0.8826,0.8827,0.8827,0.8803,0,0,0,0,0,0,0.8379,0.8394,0.8407,0.8459,0.8476,0.8537,0.8548,0.8557,0.8581,0.8584,0.8635,0.8643,0.8671,0.8715,0.8725,0.8735,0.8731,0.8825,0.8826,0.8827,0.8803,0.8803,0.8802,0,0,0,0,0,0.8374,0.8396,0.8407,0.8419,0.8492,0.8538,0.8547,0.8579,0.8581,0.8594,0.8625,0.8642,0.8727,0.8719,0.873,0.8741,0.8825,0.8826,0.8827,0.8804,0.8803,0.8802,0,0,0,0,0,0,0.8343,0.8404,0.8416,0.8456,0.8491,0.8544,0.8561,0.8578,0.8613,0.8614,0.8652,0.8663,0.8699,0.8724,0.8714,0.8773,0.8777,0.878,0.8756,0.8755,0.8755,0.8748,0.8735,0,0,0,0,0,0.834,0.8372,0.8424,0.8454,0.8471,0.8513,0.8534,0.8555,0.8593,0.8608,0.8643,0.8679,0.8714,0.8736,0.8771,0.8807,0.8819,0.882,0.882,0.8819,0.8822,0.8842,0.8844,0.883,0.883,0.883,0,0,0.8336,0.8373,0.8391,0.8448,0.8478,0.851,0.8525,0.8558,0.8582,0.8613,0.8653,0.8679,0.8722,0.876,0.8779,0.8782,0.8828,0.882,0.8819,0.8822,0.8843,0.8845,0.8846,0.8831,0.8831,0.8831,0,0,0.8344,0.8375,0.8404,0.8434,0.8479,0.8507,0.8513,0.8563,0.8582,0.8623,0.8646,0.8675,0.8735,0.8764,0.8787,0.8805,0.8822,0.8816,0.8813,0.8833,0.8834,0.8835,0.8842,0.8844,0.8818,0.8818,0.8818,0,0.8333,0.8382,0.8416,0.8449,0.8473,0.8502,0.8531,0.8558,0.8612,0.8628,0.8631,0.8706,0.8737,0.8783,0.8787,0.8804,0.8813,0.881,0.8831,0.8833,0.8834,0.8841,0.8843,0.8817,0.8817,0.8817,0.8817,0,0.8366,0.84,0.8417,0.8469,0.8496,0.8526,0.8564,0.8586,0.8605,0.8632,0.8673,0.8711,0.8754,0.8766,0.8785,0.8814,0.8815,0.8824,0.8829,0.8834,0.8841,0.8844,0.8815,0.8816,0.8816,0.8816,0,0,0.8357,0.8427,0.8433,0.8457,0.8509,0.8536,0.8567,0.8609,0.8628,0.8664,0.8691,0.874,0.8749,0.8775,0.8797,0.8815,0.8827,0.8822,0.8823,0.8821,0.8861,0.8854,0.8856,0.8838,0.8839,0.8839,0.8857,0,0.8373,0.8431,0.8462,0.8507,0.8538,0.8567,0.8594,0.8628,0.8654,0.8685,0.8713,0.8747,0.8756,0.8772,0.8791,0.8821,0.8835,0.8821,0.8863,0.8864,0.8852,0.886,0.8853,0.8868,0.886,0.8861,0.8861,0,0.8398,0.8434,0.8482,0.8531,0.8545,0.8569,0.861,0.8639,0.8678,0.8696,0.8724,0.8746,0.878,0.8782,0.8829,0.8818,0.8837,0.8855,0.8856,0.8862,0.8863,0.8866,0.8874,0.8876,0.8866,0.8866,0.8865,0,0.8387,0.8448,0.8484,0.8504,0.8561,0.8577,0.8601,0.8641,0.8664,0.87,0.8715,0.8754,0.8775,0.8805,0.8836,0.8835,0.888,0.8885,0.8895,0.8894,0.8904,0.8903,0.8915,0.8916,0.8916,0.8916,0.8916,0,0.8401,0.8429,0.848,0.8502,0.8535,0.857,0.8601,0.8627,0.8662,0.869,0.8716,0.8742,0.8782,0.8812,0.8837,0.8872,0.8881,0.8896,0.8903,0.8894,0.8892,0.8907,0.8907,0.8916,0.8916,0.8916,0.8916,0,0.8394,0.8429,0.8471,0.8522,0.8535,0.8556,0.86,0.8622,0.8649,0.8684,0.8694,0.8737,0.8774,0.8808,0.8857,0.8874,0.8909,0.8917,0.8896,0.8899,0.8908,0.8907,0.8931,0.8936,0.8932,0.8932,0.8932,0,0.8401,0.8423,0.8476,0.8497,0.8521,0.8554,0.8578,0.8613,0.8637,0.8684,0.8701,0.8739,0.8773,0.883,0.8865,0.8903,0.8912,0.8918,0.8918,0.8909,0.8912,0.8911,0.8913,0.8917,0.8917,0.8917,0.8917,0,0.8409,0.8425,0.8459,0.8499,0.8527,0.856,0.8593,0.8609,0.865,0.8675,0.8714,0.8739,0.879,0.8828,0.887,0.8894,0.8912,0.8917,0.8921,0.8913,0.89,0.8907,0.8894,0.8916,0.8916,0.8916,0.8916,0.8916,0.8409,0.8431,0.8471,0.8508,0.8537,0.8568,0.8592,0.8622,0.8654,0.8698,0.8717,0.8756,0.8794,0.8852,0.8877,0.8907,0.8911,0.8917,0.8919,0.892,0.8918,0.8894,0.8915,0.8915,0.8915,0.8915,0.8915,0,0.8419,0.8447,0.848,0.8526,0.8555,0.857,0.8608,0.8631,0.8665,0.8699,0.8731,0.8775,0.8812,0.885,0.8889,0.8906,0.8915,0.8915,0.8914,0.892,0.8913,0.8905,0.8907,0.8907,0.8907,0.8907,0.8907,0.8907,0.8427,0.8464,0.8485,0.8536,0.8563,0.8602,0.8622,0.8651,0.8679,0.8726,0.8757,0.8782,0.8818,0.8859,0.8894,0.8904,0.8917,0.8915,0.8927,0.892,0.892,0.892,0.8913,0.8917,0.8917,0.8932,0.8932,0.8932]},{"header":{"parameterUnit":"m.s-1","parameterCategory":1,"la1":30.2991,"la2":30.254,"lo1":-89.0895,"lo2":-89.0444,"dy":0.0017,"dx":0.0017,"nx":28,"ny":28,"refTime":"2024-07-27T21:00:00:Z","depth":0,"parameterNumber":3,"parameterNumberName":"V-component_of_WINDS"},"data":[0,0,0,0,0,0,0,0,0,0,0,0,0,0,0,0,0,0,0,0,0,0,0,0,0,0,0,0,0,0,0,0,0,0,0,0,0,0,0,0,0,0,0,0,0,0,0,0,0,0,0,0,0,0,0,0,0,0,1.9152,1.9152,0,1.9154,1.9154,1.9154,1.9148,1.9148,1.9147,1.9147,1.9148,1.9149,1.9149,0,0,0,0,0,0,0,0,0,0,0,0,0,1.9144,1.9144,1.9152,1.9152,1.9152,1.9154,1.9154,1.9154,1.9148,1.9148,1.9147,1.9147,1.9148,1.9149,1.9149,0,0,0,0,0,0,0,0,0,0,0,0,0,1.9147,1.9144,1.9152,1.9149,1.9149,1.9154,1.9154,1.9154,1.9148,1.9147,1.9147,1.9147,1.9148,1.9149,1.9149,1.9156,0,0,1.915,1.915,0,0,0,0,0,0,0,0,1.9146,1.9147,1.915,1.915,1.9149,1.915,1.9151,1.9155,1.9148,1.9148,1.9147,1.9147,1.9149,1.9149,1.915,1.9156,1.9156,1.915,1.915,1.915,1.915,0,0,0,0,0,0,0,1.9146,1.9147,1.9153,1.915,1.915,1.9148,1.9148,1.9152,1.915,1.9148,1.9148,1.9148,1.9149,1.915,1.915,1.9156,1.915,1.915,1.915,1.915,1.9168,1.9169,0,0,0,0,0,0,1.9146,1.9147,1.9153,1.9153,1.9147,1.9148,1.9148,1.915,1.915,1.915,1.9148,1.9148,1.915,1.915,1.915,1.9159,1.915,1.915,1.9151,1.9168,1.9168,1.9169,0,0,0,0,0,0,1.9146,1.9147,1.9153,1.915,1.915,1.9149,1.9151,1.915,1.9151,1.915,1.915,1.915,1.9149,1.915,1.9155,1.9159,1.9151,1.9151,1.9168,1.9168,1.9169,1.9176,0,0,0,0,0,0,1.9146,1.9147,1.915,1.915,1.915,1.9157,1.9151,1.9151,1.9152,1.9151,1.9151,1.9151,1.9149,1.9154,1.9155,1.9159,1.9151,1.9167,1.9168,1.9168,1.9176,1.9177,1.9178,0,0,0,0,0,1.9146,1.9152,1.915,1.9151,1.9154,1.9157,1.9158,1.9156,1.9152,1.9155,1.9154,1.9151,1.9158,1.9155,1.9156,1.916,1.9167,1.9168,1.9168,1.9175,1.9177,1.9178,0,0,0,0,0,0,1.9152,1.9152,1.915,1.9156,1.9157,1.9156,1.916,1.9157,1.9159,1.9158,1.9156,1.9156,1.9161,1.9161,1.9157,1.9167,1.9162,1.9163,1.9167,1.9168,1.917,1.917,1.9151,0,0,0,0,0,1.9155,1.9158,1.9157,1.9162,1.9163,1.9161,1.9163,1.9161,1.9162,1.9162,1.9162,1.9163,1.9165,1.9167,1.9169,1.9175,1.9175,1.9179,1.918,1.9181,1.9182,1.9185,1.9187,1.9171,1.9171,1.9171,0,0,1.9159,1.9159,1.9161,1.9164,1.9164,1.9167,1.9162,1.9165,1.9168,1.9163,1.9167,1.9167,1.9168,1.9174,1.9176,1.9174,1.9186,1.9182,1.9183,1.9183,1.9186,1.9188,1.9189,1.9171,1.9171,1.9171,0,0,1.9169,1.9169,1.9174,1.9175,1.9176,1.9174,1.9176,1.9176,1.9175,1.918,1.9176,1.9179,1.9183,1.9184,1.9185,1.9195,1.9192,1.9196,1.9202,1.9205,1.9207,1.9208,1.9212,1.9213,1.9196,1.9196,1.9196,0,1.9175,1.9179,1.9177,1.9181,1.9182,1.9178,1.9182,1.9183,1.9185,1.9185,1.9183,1.9188,1.9188,1.9194,1.9197,1.9197,1.9199,1.9196,1.9207,1.9208,1.9209,1.9212,1.9214,1.9197,1.9197,1.9197,1.9197,0,1.9186,1.919,1.9193,1.9195,1.9196,1.9201,1.9199,1.9201,1.9199,1.9198,1.9203,1.9203,1.9205,1.9206,1.9204,1.9212,1.921,1.9207,1.9202,1.9211,1.9214,1.9215,1.9197,1.9197,1.9197,1.9197,0,0,1.9201,1.9201,1.9202,1.9203,1.9203,1.9206,1.921,1.9212,1.9214,1.9215,1.9218,1.9222,1.9219,1.922,1.9218,1.9221,1.9229,1.9218,1.9218,1.922,1.9238,1.9241,1.9242,1.9227,1.9228,1.9228,1.9238,0,1.9211,1.9218,1.9216,1.9223,1.9226,1.9222,1.9225,1.9226,1.9225,1.9227,1.9227,1.9229,1.9225,1.9226,1.9229,1.9228,1.9233,1.9227,1.9231,1.9231,1.9231,1.9244,1.9247,1.9257,1.9239,1.924,1.924,0,1.9223,1.9225,1.9232,1.9232,1.9234,1.9237,1.9239,1.9241,1.9242,1.9241,1.9242,1.924,1.9243,1.9238,1.9244,1.924,1.9241,1.9241,1.9241,1.9242,1.9236,1.9245,1.926,1.9261,1.9242,1.9242,1.9242,0,1.9233,1.9237,1.9242,1.9243,1.9243,1.9246,1.9246,1.9246,1.9248,1.9249,1.925,1.9252,1.9253,1.9255,1.9253,1.9249,1.9259,1.9253,1.9258,1.9258,1.9261,1.926,1.9276,1.9261,1.9261,1.9261,1.9261,0,1.9245,1.9249,1.9247,1.925,1.9255,1.9253,1.9258,1.9257,1.9258,1.9261,1.9257,1.926,1.9257,1.926,1.9258,1.9263,1.9264,1.9263,1.9263,1.9264,1.9264,1.9265,1.9264,1.9261,1.9261,1.9261,1.9261,0,1.9257,1.9255,1.9261,1.926,1.926,1.9264,1.9264,1.9267,1.9266,1.927,1.927,1.9269,1.9272,1.927,1.9273,1.9271,1.9278,1.9276,1.9278,1.9278,1.9283,1.9282,1.9299,1.9302,1.9285,1.9285,1.9285,0,1.9264,1.9268,1.9268,1.927,1.927,1.9273,1.9275,1.9272,1.9274,1.9275,1.9278,1.928,1.9282,1.9287,1.9286,1.9288,1.9287,1.9293,1.9287,1.9288,1.9288,1.9287,1.9288,1.9294,1.9294,1.9294,1.9294,0,1.9278,1.9277,1.928,1.9282,1.9284,1.9285,1.9286,1.9288,1.9285,1.9288,1.929,1.9292,1.9295,1.9298,1.9299,1.93,1.9297,1.9296,1.9297,1.9299,1.9299,1.9299,1.9281,1.9296,1.9296,1.9296,1.9296,1.9296,1.9288,1.9292,1.9292,1.9295,1.9296,1.9297,1.93,1.9299,1.9301,1.9304,1.9302,1.9305,1.9306,1.9308,1.9309,1.9311,1.9309,1.9311,1.9311,1.9312,1.9313,1.9299,1.9312,1.9312,1.9312,1.9312,1.9312,0,1.9302,1.9302,1.9305,1.9307,1.9309,1.9306,1.9307,1.9309,1.9313,1.9313,1.9315,1.9319,1.9321,1.9321,1.9323,1.9325,1.9324,1.9326,1.9326,1.9326,1.9315,1.9314,1.9327,1.9327,1.9327,1.9327,1.9327,1.9327,1.931,1.9315,1.9314,1.9319,1.9319,1.9323,1.9324,1.9325,1.9326,1.933,1.9332,1.9331,1.9332,1.9334,1.9336,1.9336,1.9337,1.934,1.9339,1.9328,1.9327,1.9325,1.9324,1.934,1.934,1.935,1.935,1.935]}]]